SCP
0 0 0 0 0 0 0 0 0 0 0 0 0 0 0 0 0 0 0 0 0 0 0 0 0 0 0 0 0 0 0 0 0 0 0 0 0 0 0 0 0 0 0 0
0 0 0 0 0 0 0 0 0 0 0 0 0 0 0 0 0 0 0 0 0 0 0 0 0 0 0 0 0 0 0 0 0 0 0 0 0 0 0 0 0 0 0 0
0 0 0 0 0 0 0 0 0 0 0 0 0 0 0 0 0 0 0 0 0 0 0 0 0 0 0 0 0 0 0 0 0 0 0 0 0 0 0 0 0 0 0 0
0 0 0 0 0 0 0 0 0 0 0 0 0 0 0 0 0 0 0 0 0 0 0 0 0 0 0 0 0 0 0 0 0 0 0 0 0 0 0 0 0 0 0 0
0 0 0 0 0 0 0 0 0 0 0 0 0 0 0 0 0 0 0 0 0 0 0 0 0 0 0 0 0 0 0 0 0 0 0 0 0 0 0 0 0 0 0 0
0 0 0 0 0 0 0 0 0 0 0 0 0 0 0 0 0 0 0 0 0 0 0 0 0 0 0 0 0 0 0 0 0 0 0 0 0 0 0 0 0 0 0 0
0 0 0 0 0 0 0 0 0 0 0 0 0 0 0 0 0 0 0 0 0 0 0 0 0 0 0 0 0 0 0 0 0 0 0 0 0 0 0 0 0 0 0 0
0 0 0 0 0 0 0 0 0 0 0 0 0 0 0 0 0 0 0 0 0 0 0 0 0 0 0 0 0 0 0 0 0 0 0 0 0 0 0 0 0 0 0 0
0 0 0 0 0 0 0 0 0 0 0 0 0 0 0 0 0 0 0 0 0 0 0 0 0 0 0 0 0 0 0 0 0 0 0 0 0 0 0 0 0 0 0 0
0 0 0 0 0 0 0 0 0 0 0 0 0 0 0 0 0 0 0 0 0 0 0 0 0 0 0 0 0 0 0 0 0 0 0 0 0 0 0 0 0 0 0 0
0 0 0 0 0 0 0 0 0 0 0 0 0 0 0 0 0 0 0 0 0 0 0 0 0 0 0 0 0 0 0 0 0 0 0 0 0 0 0 0 0 0 0 0
0 0 0 0 0 0 0 0 0 0 0 0 0 0 0 0 0 0 0 0 0 0 0 0 0 0 0 0 0 0 0 0 0 0 0 0 0 0 0 0 0 0 0 0
0 0 0 0 0 0 0 0 0 0 0 0 0 0 0 0 0 0 0 0 0 0 0 0 0 0 0 0 0 0 0 0 0 0 0 0 0 0 0 0 0 0 0 0
0 0 0 0 0 0 0 0 0 0 0 0 0 0 0 0 0 0 0 0 0 0 0 0 0 0 0 0 0 0 0 0 0 0 0 0 0 0 0 0 0 0 0 0
0 0 0 0 0 0 0 0 0 0 0 0 0 0 0 0 0 0 0 0 0 0 0 0 0 0 0 0 0 0 0 0 0 0 0 0 0 0 0 0 0 0 0 0
0 0 0 0 0 0 0 0 0 0 0 0 0 0 0 0 0 0 0 0 0 0 0 0 0 0 0 0 0 0 0 0 0 0 0 0 0 0 0 0 0 0 0 0
0 0 0 0 0 0 0 0 0 0 0 0 0 0 0 0 0 0 0 0 0 0 0 0 0 0 0 0 0 0 0 0 0 0 0 0 0 0 0 0 0 0 0 0
0 0 0 0 0 0 0 0 0 0 0 0 0 0 0 0 0 0 0 0 0 0 0 0 0 0 0 0 0 0 0 0 0 0 0 0 0 0 0 0 0 0 0 0
0 0 0 0 0 0 0 0 0 0 0 0 0 0 0 0 0 0 0 0 0 0 0 0 0 0 0 0 0 0 0 0 0 0 0 0 0 0 0 0 0 0 0 0
0 0 0 0 0 0 0 0 0 0 0 0 0 0 0 0 0 0 0 0 0 0 0 0 0 0 0 0 0 0 0 0 0 0 0 0 0 0 0 0 0 0 0 0
0 0 0 0 0 0 0 0 0 0 0 0 0 0 0 0 0 0 0 0 0 0 0 0 0 0 0 0 0 0 0 0 0 0 0 0 0 0 0 0 0 0 0 0
0 0 0 0 0 0 0 0 0 0 0 0 0 0 0 0 0 0 0 0 0 0 0 0 0 0 0 0 0 0 0 0 0 0 0 0 0 0 0 0 0 0 0 0
0 0 0 0 0 0 0 0 0 0 0 0 0 0 0 0 0 0 0 0 0 0 0 0 0 0 0 0 0 0 0 0 0 0 0 0 0 0 0 0 0 0 0 0
0 0 0 0 0 0 0 0 0 0 0 0 0 0 0 0 0 0 0 0 0 0 0 0 0 0 0 0 0 0 0 0 0 0 0 0 0 0 0 0 0 0 0 0
0 0 0 0 0 0 0 0 0 0 0 0 0 0 0 0 0 0 0 0 0 0 0 0 0 0 0 0 0 0 0 0 0 0 0 0 0 0 0 0 0 0 0 0
0 0 0 0 0 0 0 0 0 0 0 0 0 0 0 0 0 0 0 0 0 0 0 0 0 0 0 0 0 0 0 0 0 0 0 0 0 0 0 0 0 0 0 0
Wind_Speed_500mb
2 16 27 26 16 1 12 9 12 5 4 8 18 26 29 28 24 32 34 30 32 35 30 39 37 41 43 49 57 65 68 68 72 74 74 73 71 62 59 54 49 49 47 45
9 26 12 13 11 9 12 13 9 4 3 7 5 25 29 27 25 34 37 37 39 37 41 41 38 44 52 58 62 66 71 73 75 77 76 75 70 69 62 56 54 55 53 53
30 2 25 15 16 15 9 15 8 1 4 3 10 20 18 8 21 27 46 35 36 42 50 45 46 47 45 50 60 71 73 74 75 77 74 74 69 71 70 70 66 62 57 58
17 5 16 10 20 20 15 12 9 12 7 10 5 12 9 8 18 18 17 15 15 22 29 31 33 37 43 44 44 49 59 66 73 71 74 76 75 71 73 70 64 60 58 62
12 20 19 21 15 19 6 10 10 5 7 3 9 11 7 5 16 20 13 15 13 13 12 13 17 21 25 33 40 43 48 50 56 69 70 72 72 70 61 58 58 60 54 55
4 3 6 0 9 2 23 17 12 6 3 13 18 15 11 13 19 6 12 12 13 15 14 12 12 13 13 14 17 21 27 37 44 57 60 61 68 65 67 62 57 53 52 48
7 8 7 10 13 5 7 25 6 7 9 12 2 8 22 12 12 6 20 9 15 19 19 16 14 15 14 14 14 15 20 27 34 46 52 56 58 53 59 61 57 55 51 49
26 16 21 13 10 18 16 17 9 14 10 4 4 16 11 2 5 18 13 14 17 19 20 18 15 13 13 12 12 14 17 23 31 39 42 43 45 50 50 51 53 50 48 44
19 20 4 4 8 19 13 15 3 13 2 2 10 13 20 17 17 12 15 19 19 21 21 19 17 15 14 13 13 13 13 15 18 24 32 38 40 42 46 47 45 44 44 43
14 8 1 8 7 2 12 21 7 5 10 12 14 13 22 11 23 19 21 26 24 26 25 25 23 21 19 17 17 16 16 16 18 18 21 24 28 31 32 35 36 38 41 43
14 8 6 10 25 34 11 12 4 6 7 9 10 17 10 28 29 35 31 29 29 31 33 31 30 29 27 25 24 21 20 19 19 19 18 18 19 21 23 26 29 31 33 33
25 6 14 18 3 7 14 25 31 14 20 13 8 23 2 9 23 43 40 32 31 32 34 36 35 33 32 31 30 28 27 26 25 22 20 19 18 17 16 14 14 14 15 18
23 13 6 6 7 8 17 19 29 36 6 23 17 27 4 3 21 30 38 36 38 38 40 39 39 37 34 32 30 29 29 28 27 25 22 21 18 16 13 11 10 10 13 17
38 6 25 38 39 12 19 23 25 31 19 35 28 53 10 15 25 29 35 38 42 43 44 43 41 38 35 33 31 30 28 28 26 24 21 19 16 12 8 4 1 4 8 11
16 16 20 41 30 22 26 36 36 37 49 37 57 51 36 35 37 57 53 42 42 45 44 44 44 41 38 34 31 28 27 26 25 21 20 17 15 11 7 4 3 7 11 15
6 16 13 32 28 31 26 26 40 52 60 54 58 48 23 40 36 42 56 57 54 51 50 49 46 43 40 37 34 30 28 27 24 20 17 15 10 7 7 11 13 17 21 24
15 16 14 39 17 10 14 57 44 41 54 46 53 68 17 28 46 67 64 69 68 63 60 56 51 45 42 39 35 31 26 23 17 13 9 5 3 8 13 17 21 25 29 32
7 27 16 13 12 21 42 29 46 49 46 46 48 46 27 41 77 69 78 86 70 66 63 58 53 49 44 39 33 27 21 15 9 4 2 6 11 16 20 24 30 34 38 41
20 20 13 14 25 21 29 16 37 32 57 51 55 54 26 23 38 34 59 65 75 70 63 59 53 47 42 35 28 21 14 8 4 5 9 13 18 23 27 31 35 40 45 47
16 13 18 10 17 21 40 18 28 12 36 36 54 49 25 46 21 22 72 81 81 72 66 62 54 45 37 29 21 14 9 4 5 9 14 19 24 30 34 38 43 47 53 58
9 5 24 29 13 12 2 3 30 23 14 4 15 54 56 36 46 40 83 83 79 74 68 59 50 40 29 20 11 5 4 5 8 13 19 25 31 37 44 48 53 60 63 68
15 13 9 10 16 27 6 3 16 7 11 12 12 23 49 38 30 66 82 89 88 81 69 57 46 30 18 18 19 10 6 10 16 23 29 35 41 46 51 58 61 66 71 76
8 9 6 9 5 6 12 7 10 16 16 13 10 27 47 49 63 78 85 84 71 63 56 43 31 27 25 17 11 7 9 15 21 27 33 38 43 48 54 59 65 69 71 76
7 6 7 4 12 14 25 38 27 17 29 23 13 29 48 57 71 78 88 81 70 58 47 37 34 29 24 17 10 10 15 21 26 33 38 43 47 52 57 62 67 71 72 74
3 14 9 9 8 11 41 40 40 40 36 29 20 37 49 62 76 87 85 76 67 58 49 41 32 27 18 13 12 14 20 26 31 35 39 44 49 54 58 60 63 65 65 68
12 10 10 8 6 7 15 30 55 48 41 36 42 54 55 67 83 83 78 67 58 49 43 37 31 25 19 14 14 18 22 26 30 35 40 47 53 58 61 66 67 60 65 64
Wind_Direction_500mb
148 214 203 192 197 108 154 166 182 155 116 214 234 255 262 267 272 258 252 241 242 244 250 249 245 240 238 236 236 236 235 236 235 235 236 239 241 240 238 236 238 238 237 233
181 229 196 151 145 147 155 166 182 115 94 232 281 274 272 255 251 246 251 243 244 252 255 259 253 249 246 244 240 237 236 235 236 237 238 241 244 247 247 245 243 239 239 240
205 220 169 163 169 177 193 192 172 135 128 80 306 270 254 244 246 250 249 254 253 256 260 260 258 252 244 240 237 233 236 237 235 236 237 236 243 247 248 244 243 242 243 242
226 75 178 202 197 191 211 202 154 143 177 252 342 281 266 254 273 245 246 247 238 241 248 250 245 244 239 233 227 229 232 234 234 231 230 229 232 230 240 250 249 243 248 246
179 170 164 203 212 184 202 140 132 117 157 289 195 261 251 345 266 252 197 166 174 190 191 210 218 227 231 232 235 238 238 235 233 227 228 231 232 234 234 244 252 249 249 250
103 70 179 33 40 241 142 101 66 68 124 246 214 225 228 210 228 175 155 163 184 179 164 149 140 143 165 186 208 221 220 223 224 220 223 226 233 232 229 236 244 249 251 249
144 178 168 148 107 102 187 158 142 197 201 249 76 202 256 226 218 225 176 192 192 178 171 162 146 137 133 144 162 185 200 209 212 215 219 222 227 226 230 233 240 247 251 252
195 208 180 170 195 175 190 194 179 196 197 214 101 230 249 220 297 228 230 193 182 176 171 168 162 151 143 145 152 163 181 194 203 209 214 218 220 223 227 234 238 243 247 255
189 225 157 183 158 156 181 216 137 102 49 257 211 257 271 225 234 194 181 169 169 171 167 162 156 154 152 156 165 171 175 184 191 201 207 210 211 215 221 228 233 235 240 244
189 186 167 143 143 271 200 137 166 225 201 232 228 264 244 204 214 188 184 182 170 168 163 158 154 151 151 153 157 159 163 169 173 180 190 198 202 206 211 216 222 228 234 238
165 225 103 151 210 183 162 183 199 217 213 236 260 252 215 223 198 188 181 175 170 168 163 157 150 144 141 137 132 135 140 146 149 154 165 174 185 195 204 212 220 229 235 242
198 196 188 197 17 305 236 213 189 195 211 228 274 259 130 272 187 174 170 173 169 167 158 152 148 144 139 137 132 131 130 134 131 134 138 144 149 156 166 178 194 212 233 243
167 216 197 207 244 207 224 208 220 225 39 208 214 254 37 134 167 167 163 168 168 166 160 157 151 150 147 142 138 137 134 133 129 130 134 134 140 147 160 178 205 229 247 258
160 130 213 226 230 163 215 214 213 211 223 232 224 254 177 173 181 172 174 174 171 171 172 165 162 158 154 152 151 149 144 138 136 138 138 139 135 131 130 135 225 285 288 290
158 200 211 242 248 233 219 213 211 209 223 225 236 239 240 194 188 191 180 173 177 179 177 171 167 163 161 157 154 153 149 141 137 138 136 133 123 111 92 60 351 319 311 306
230 217 185 250 244 231 238 221 211 212 225 231 243 248 257 197 189 179 187 184 187 183 179 176 173 169 164 163 161 159 152 145 139 137 127 114 99 67 12 342 328 320 312 309
183 190 194 249 236 209 250 232 220 225 228 223 233 241 192 188 192 193 189 192 189 184 181 178 175 172 168 165 162 159 152 141 140 134 124 104 16 337 324 316 313 308 305 304
248 205 202 249 151 230 242 242 227 227 235 230 243 249 231 204 208 206 201 193 185 183 180 177 174 171 167 165 163 160 157 156 161 183 281 315 319 319 316 313 311 309 307 306
220 206 216 218 215 274 282 200 208 206 240 227 229 237 215 181 166 207 201 194 191 183 177 173 171 168 167 165 167 169 176 187 222 282 305 313 317 319 319 318 317 315 312 311
201 213 217 182 221 226 260 207 182 154 261 228 228 239 172 151 191 211 194 196 190 183 177 172 170 169 170 170 173 183 193 229 300 318 324 326 325 322 320 320 318 316 314 313
153 208 224 225 233 270 52 221 160 168 246 314 241 234 189 196 223 206 183 184 183 176 173 171 168 170 169 168 170 217 248 289 319 325 324 322 321 320 318 318 318 315 313 310
177 185 202 213 224 238 143 112 194 328 322 294 279 206 183 204 174 161 163 170 170 168 167 166 165 163 173 202 217 223 264 315 325 326 324 324 323 322 321 319 318 314 313 310
211 200 181 213 229 258 229 238 275 301 305 299 230 187 180 155 148 155 158 164 161 162 161 157 164 174 192 201 219 261 296 307 316 318 317 316 317 317 316 314 313 313 313 312
264 155 221 152 205 224 225 209 251 293 299 291 242 196 180 157 153 154 161 161 159 159 158 167 180 190 202 209 231 276 300 311 314 313 314 316 317 317 316 314 312 311 313 312
195 153 187 254 264 299 254 245 245 249 257 250 212 190 179 170 162 165 163 162 164 165 170 177 184 188 197 221 255 287 303 307 311 315 318 318 318 318 317 316 315 312 313 314
192 184 195 247 187 206 267 260 242 234 223 218 197 176 176 176 168 166 163 164 166 167 173 177 184 193 206 230 267 288 300 309 315 318 318 319 319 319 318 317 316 314 314 314
Wind_Speed_850mb
2 16 27 26 16 1 12 9 12 5 4 8 18 26 29 28 24 32 34 30 32 35 30 39 37 41 43 49 57 65 68 68 72 74 74 73 71 62 59 54 49 49 47 45
9 26 12 13 11 9 12 13 9 4 3 7 5 25 29 27 25 34 37 37 39 37 41 41 38 44 52 58 62 66 71 73 75 77 76 75 70 69 62 56 54 55 53 53
30 2 25 15 16 15 9 15 8 1 4 3 10 20 18 8 21 27 46 35 36 42 50 45 46 47 45 50 60 71 73 74 75 77 74 74 69 71 70 70 66 62 57 58
17 5 16 10 20 20 15 12 9 12 7 10 5 12 9 8 18 18 17 15 15 22 29 31 33 37 43 44 44 49 59 66 73 71 74 76 75 71 73 70 64 60 58 62
12 20 19 21 15 19 6 10 10 5 7 3 9 11 7 5 16 20 13 15 13 13 12 13 17 21 25 33 40 43 48 50 56 69 70 72 72 70 61 58 58 60 54 55
4 3 6 0 9 2 23 17 12 6 3 13 18 15 11 13 19 6 12 12 13 15 14 12 12 13 13 14 17 21 27 37 44 57 60 61 68 65 67 62 57 53 52 48
7 8 7 10 13 5 7 25 6 7 9 12 2 8 22 12 12 6 20 9 15 19 19 16 14 15 14 14 14 15 20 27 34 46 52 56 58 53 59 61 57 55 51 49
26 16 21 13 10 18 16 17 9 14 10 4 4 16 11 2 5 18 13 14 17 19 20 18 15 13 13 12 12 14 17 23 31 39 42 43 45 50 50 51 53 50 48 44
19 20 4 4 8 19 13 15 3 13 2 2 10 13 20 17 17 12 15 19 19 21 21 19 17 15 14 13 13 13 13 15 18 24 32 38 40 42 46 47 45 44 44 43
14 8 1 8 7 2 12 21 7 5 10 12 14 13 22 11 23 19 21 26 24 26 25 25 23 21 19 17 17 16 16 16 18 18 21 24 28 31 32 35 36 38 41 43
14 8 6 10 25 34 11 12 4 6 7 9 10 17 10 28 29 35 31 29 29 31 33 31 30 29 27 25 24 21 20 19 19 19 18 18 19 21 23 26 29 31 33 33
25 6 14 18 3 7 14 25 31 14 20 13 8 23 2 9 23 43 40 32 31 32 34 36 35 33 32 31 30 28 27 26 25 22 20 19 18 17 16 14 14 14 15 18
23 13 6 6 7 8 17 19 29 36 6 23 17 27 4 3 21 30 38 36 38 38 40 39 39 37 34 32 30 29 29 28 27 25 22 21 18 16 13 11 10 10 13 17
38 6 25 38 39 12 19 23 25 31 19 35 28 53 10 15 25 29 35 38 42 43 44 43 41 38 35 33 31 30 28 28 26 24 21 19 16 12 8 4 1 4 8 11
16 16 20 41 30 22 26 36 36 37 49 37 57 51 36 35 37 57 53 42 42 45 44 44 44 41 38 34 31 28 27 26 25 21 20 17 15 11 7 4 3 7 11 15
6 16 13 32 28 31 26 26 40 52 60 54 58 48 23 40 36 42 56 57 54 51 50 49 46 43 40 37 34 30 28 27 24 20 17 15 10 7 7 11 13 17 21 24
15 16 14 39 17 10 14 57 44 41 54 46 53 68 17 28 46 67 64 69 68 63 60 56 51 45 42 39 35 31 26 23 17 13 9 5 3 8 13 17 21 25 29 32
7 27 16 13 12 21 42 29 46 49 46 46 48 46 27 41 77 69 78 86 70 66 63 58 53 49 44 39 33 27 21 15 9 4 2 6 11 16 20 24 30 34 38 41
20 20 13 14 25 21 29 16 37 32 57 51 55 54 26 23 38 34 59 65 75 70 63 59 53 47 42 35 28 21 14 8 4 5 9 13 18 23 27 31 35 40 45 47
16 13 18 10 17 21 40 18 28 12 36 36 54 49 25 46 21 22 72 81 81 72 66 62 54 45 37 29 21 14 9 4 5 9 14 19 24 30 34 38 43 47 53 58
9 5 24 29 13 12 2 3 30 23 14 4 15 54 56 36 46 40 83 83 79 74 68 59 50 40 29 20 11 5 4 5 8 13 19 25 31 37 44 48 53 60 63 68
15 13 9 10 16 27 6 3 16 7 11 12 12 23 49 38 30 66 82 89 88 81 69 57 46 30 18 18 19 10 6 10 16 23 29 35 41 46 51 58 61 66 71 76
8 9 6 9 5 6 12 7 10 16 16 13 10 27 47 49 63 78 85 84 71 63 56 43 31 27 25 17 11 7 9 15 21 27 33 38 43 48 54 59 65 69 71 76
7 6 7 4 12 14 25 38 27 17 29 23 13 29 48 57 71 78 88 81 70 58 47 37 34 29 24 17 10 10 15 21 26 33 38 43 47 52 57 62 67 71 72 74
3 14 9 9 8 11 41 40 40 40 36 29 20 37 49 62 76 87 85 76 67 58 49 41 32 27 18 13 12 14 20 26 31 35 39 44 49 54 58 60 63 65 65 68
12 10 10 8 6 7 15 30 55 48 41 36 42 54 55 67 83 83 78 67 58 49 43 37 31 25 19 14 14 18 22 26 30 35 40 47 53 58 61 66 67 60 65 64
Wind_Direction_850mb
148 214 203 192 197 108 154 166 182 155 116 214 234 255 262 267 272 258 252 241 242 244 250 249 245 240 238 236 236 236 235 236 235 235 236 239 241 240 238 236 238 238 237 233
181 229 196 151 145 147 155 166 182 115 94 232 281 274 272 255 251 246 251 243 244 252 255 259 253 249 246 244 240 237 236 235 236 237 238 241 244 247 247 245 243 239 239 240
205 220 169 163 169 177 193 192 172 135 128 80 306 270 254 244 246 250 249 254 253 256 260 260 258 252 244 240 237 233 236 237 235 236 237 236 243 247 248 244 243 242 243 242
226 75 178 202 197 191 211 202 154 143 177 252 342 281 266 254 273 245 246 247 238 241 248 250 245 244 239 233 227 229 232 234 234 231 230 229 232 230 240 250 249 243 248 246
179 170 164 203 212 184 202 140 132 117 157 289 195 261 251 345 266 252 197 166 174 190 191 210 218 227 231 232 235 238 238 235 233 227 228 231 232 234 234 244 252 249 249 250
103 70 179 33 40 241 142 101 66 68 124 246 214 225 228 210 228 175 155 163 184 179 164 149 140 143 165 186 208 221 220 223 224 220 223 226 233 232 229 236 244 249 251 249
144 178 168 148 107 102 187 158 142 197 201 249 76 202 256 226 218 225 176 192 192 178 171 162 146 137 133 144 162 185 200 209 212 215 219 222 227 226 230 233 240 247 251 252
195 208 180 170 195 175 190 194 179 196 197 214 101 230 249 220 297 228 230 193 182 176 171 168 162 151 143 145 152 163 181 194 203 209 214 218 220 223 227 234 238 243 247 255
189 225 157 183 158 156 181 216 137 102 49 257 211 257 271 225 234 194 181 169 169 171 167 162 156 154 152 156 165 171 175 184 191 201 207 210 211 215 221 228 233 235 240 244
189 186 167 143 143 271 200 137 166 225 201 232 228 264 244 204 214 188 184 182 170 168 163 158 154 151 151 153 157 159 163 169 173 180 190 198 202 206 211 216 222 228 234 238
165 225 103 151 210 183 162 183 199 217 213 236 260 252 215 223 198 188 181 175 170 168 163 157 150 144 141 137 132 135 140 146 149 154 165 174 185 195 204 212 220 229 235 242
198 196 188 197 17 305 236 213 189 195 211 228 274 259 130 272 187 174 170 173 169 167 158 152 148 144 139 137 132 131 130 134 131 134 138 144 149 156 166 178 194 212 233 243
167 216 197 207 244 207 224 208 220 225 39 208 214 254 37 134 167 167 163 168 168 166 160 157 151 150 147 142 138 137 134 133 129 130 134 134 140 147 160 178 205 229 247 258
160 130 213 226 230 163 215 214 213 211 223 232 224 254 177 173 181 172 174 174 171 171 172 165 162 158 154 152 151 149 144 138 136 138 138 139 135 131 130 135 225 285 288 290
158 200 211 242 248 233 219 213 211 209 223 225 236 239 240 194 188 191 180 173 177 179 177 171 167 163 161 157 154 153 149 141 137 138 136 133 123 111 92 60 351 319 311 306
230 217 185 250 244 231 238 221 211 212 225 231 243 248 257 197 189 179 187 184 187 183 179 176 173 169 164 163 161 159 152 145 139 137 127 114 99 67 12 342 328 320 312 309
183 190 194 249 236 209 250 232 220 225 228 223 233 241 192 188 192 193 189 192 189 184 181 178 175 172 168 165 162 159 152 141 140 134 124 104 16 337 324 316 313 308 305 304
248 205 202 249 151 230 242 242 227 227 235 230 243 249 231 204 208 206 201 193 185 183 180 177 174 171 167 165 163 160 157 156 161 183 281 315 319 319 316 313 311 309 307 306
220 206 216 218 215 274 282 200 208 206 240 227 229 237 215 181 166 207 201 194 191 183 177 173 171 168 167 165 167 169 176 187 222 282 305 313 317 319 319 318 317 315 312 311
201 213 217 182 221 226 260 207 182 154 261 228 228 239 172 151 191 211 194 196 190 183 177 172 170 169 170 170 173 183 193 229 300 318 324 326 325 322 320 320 318 316 314 313
153 208 224 225 233 270 52 221 160 168 246 314 241 234 189 196 223 206 183 184 183 176 173 171 168 170 169 168 170 217 248 289 319 325 324 322 321 320 318 318 318 315 313 310
177 185 202 213 224 238 143 112 194 328 322 294 279 206 183 204 174 161 163 170 170 168 167 166 165 163 173 202 217 223 264 315 325 326 324 324 323 322 321 319 318 314 313 310
211 200 181 213 229 258 229 238 275 301 305 299 230 187 180 155 148 155 158 164 161 162 161 157 164 174 192 201 219 261 296 307 316 318 317 316 317 317 316 314 313 313 313 312
264 155 221 152 205 224 225 209 251 293 299 291 242 196 180 157 153 154 161 161 159 159 158 167 180 190 202 209 231 276 300 311 314 313 314 316 317 317 316 314 312 311 313 312
195 153 187 254 264 299 254 245 245 249 257 250 212 190 179 170 162 165 163 162 164 165 170 177 184 188 197 221 255 287 303 307 311 315 318 318 318 318 317 316 315 312 313 314
192 184 195 247 187 206 267 260 242 234 223 218 197 176 176 176 168 166 163 164 166 167 173 177 184 193 206 230 267 288 300 309 315 318 318 319 319 319 318 317 316 314 314 314